Location: Aressy
(43.2833°N, 0.3167°W)
Time: 19:08:24
(UTC+00:00)

CZ-2C R/B - Pass Details

Date: 28 January 2021
Orbit: 704 x 908 km, 98.1° (Epoch: 02 March)

Event Time Altitude Azimuth Distance (km) Brightness Sun altitude
Rises 18:07:00 0° 159° (SSE) 3,341 6.2 -10.9°
Reaches altitude 10° 18:09:17 10° 158° (SSE) 2,441 5.5 -11.3°
Maximum altitude 18:14:43 74° 74° (ENE) 904 3.2 -12.3°
Drops below altitude 10° 18:20:27 10° 351° (N) 2,568 5.7 -13.3°
Sets 18:22:54 0° 349° (N) 3,528 6.4 -13.8°
